Location: Bednik
(45.3500°N, 16.3833°E)
Time: 20:26:12
(UTC+00:00)

Cosmos 1703 Rocket - Pass Details

Date: 08 August 2020
Orbit: 605 x 634 km, 82.5° (Epoch: 21 September)

Event Time Altitude Azimuth Distance (km) Brightness Sun altitude
Rises 20:40:11 0° 353° (N) 2,890 8.0 -21.1°
Reaches altitude 10° 20:42:26 10° 356° (N) 1,976 6.9 -21.3°
Maximum altitude 20:46:47 67° 80° (E) 664 3.5 -21.8°
Enters shadow 20:47:08 63° 110° (ESE) 680 3.4 -21.8°
